TimePST,TemperatureF,Dew PointF,Humidity,Sea Level PressureIn,VisibilityMPH,Wind Direction,Wind SpeedMPH,Gust SpeedMPH,PrecipitationIn,Events,Conditions,WindDirDegrees,DateUTC
12:53 AM,28.0,21.9,78,29.96,10.0,ESE,8.1,-,N/A,,Mostly Cloudy,110,2013-11-03 07:53:00
1:53 AM,30.0,21.9,72,29.94,10.0,NNE,6.9,-,N/A,,Overcast,30,2013-11-03 08:53:00
1:53 AM,28.0,21.0,75,29.94,10.0,ENE,8.1,-,N/A,,Scattered Clouds,70,2013-11-03 09:53:00
2:53 AM,30.0,21.9,72,29.94,10.0,ENE,5.8,-,N/A,,Mostly Cloudy,60,2013-11-03 10:53:00
3:53 AM,26.1,21.0,81,29.96,10.0,ENE,6.9,-,N/A,,Mostly Cloudy,60,2013-11-03 11:53:00
4:53 AM,26.1,19.9,78,29.98,10.0,East,4.6,-,N/A,,Partly Cloudy,90,2013-11-03 12:53:00
5:53 AM,32.0,23.0,69,29.99,10.0,SSE,6.9,-,N/A,,Mostly Cloudy,160,2013-11-03 13:53:00
6:53 AM,28.9,26.1,89,30.00,10.0,SE,5.8,-,N/A,,Overcast,140,2013-11-03 14:53:00
7:53 AM,33.1,28.0,82,30.01,10.0,South,5.8,-,N/A,,Overcast,170,2013-11-03 15:53:00
8:53 AM,36.0,26.1,67,30.02,10.0,Variable,3.5,-,N/A,,Overcast,0,2013-11-03 16:53:00
9:53 AM,39.0,25.0,57,30.04,10.0,SSW,5.8,-,N/A,,Mostly Cloudy,200,2013-11-03 17:53:00
10:53 AM,41.0,25.0,53,30.04,10.0,Variable,5.8,-,N/A,,Clear,0,2013-11-03 18:53:00
11:53 AM,41.0,23.0,49,30.03,10.0,SSW,8.1,-,N/A,,Overcast,210,2013-11-03 19:53:00
12:53 PM,41.0,25.0,53,30.03,10.0,NNE,8.1,-,N/A,,Overcast,30,2013-11-03 20:53:00
1:53 PM,39.9,23.0,51,30.03,10.0,ESE,6.9,-,0.00,,Overcast,110,2013-11-03 21:53:00
2:53 PM,42.1,21.9,45,30.04,10.0,Variable,4.6,-,N/A,,Mostly Cloudy,0,2013-11-03 22:53:00
3:53 PM,37.9,23.0,55,30.05,10.0,South,3.5,-,N/A,,Mostly Cloudy,190,2013-11-03 23:53:00
4:53 PM,36.0,23.0,59,30.07,10.0,NW,8.1,-,N/A,,Overcast,310,2013-11-04 00:53:00
5:53 PM,36.0,25.0,64,30.06,10.0,NW,9.2,-,N/A,,Overcast,320,2013-11-04 01:53:00
6:53 PM,33.1,26.1,75,30.09,10.0,SW,6.9,-,N/A,,Overcast,220,2013-11-04 02:53:00
7:53 PM,27.0,24.1,89,30.08,10.0,Calm,Calm,-,N/A,,Overcast,0,2013-11-04 03:53:00
8:53 PM,33.1,26.1,75,30.06,10.0,East,5.8,-,N/A,,Overcast,80,2013-11-04 04:53:00
9:53 PM,32.0,27.0,82,30.06,10.0,ENE,4.6,-,N/A,,Overcast,70,2013-11-04 05:53:00
10:53 PM,30.0,26.1,85,30.06,10.0,NW,3.5,-,N/A,,Overcast,320,2013-11-04 06:53:00